Location: Buchberg
(46.9333°N, 15.8500°E)
Time: 08:49:28
(UTC+00:00)

SeaSat 1 - Pass Details

Date: 14 July 2020
Orbit: 744 x 747 km, 108.0° (Epoch: 07 August)

Event Time Altitude Azimuth Distance (km) Brightness Sun altitude
Rises 00:35:28 0° 32° (NNE) 3,201 7.3 -18.3°
Reaches altitude 10° 00:37:49 10° 38° (NE) 2,273 6.1 -18.1°
Maximum altitude 00:42:37 50° 114° (ESE) 952 2.9 -17.8°
Enters shadow 00:45:00 27° 175° (S) 1,402 3.4 -17.6°
